Preview of NWS' New Version of Forecast
This preview is not operational and should not be used for support decisions.

Regional Weather Roundup (RWR)

Issued by National Weather Service (NWS)

                            
000
ASUS45 KBOU 162010
RWRCO 

WEATHER ROUNDUP FOR COLORADO
NATIONAL WEATHER SERVICE DENVER/BOULDER CO
200 PM MDT TUE APR 16 2019

NOTE: "FAIR" INDICATES FEW OR NO CLOUDS BELOW 12000 FEET WITH NO
SIGNIFICANT WEATHER AND/OR OBSTRUCTIONS TO VISIBILITY.

COZ001>005-013-030-031-162100-
...NORTHWEST COLORADO...
  
CITY           SKY/WX    TMP DP  RH WIND       PRES   REMARKS
CRAIG          PTSUNNY   61  27  27 S17G31    29.79S                  
HAYDEN         FAIR      58  25  28 SW20G28   29.81S                  
MEEKER         FAIR      59  24  26 SW18G28   29.81F                  
RANGELY        MOCLDY    62  34  34 W18       29.76F                  
RABBIT EARS PA CLOUDY    39  23  52 SW8       29.96F                  
STEAMBOAT SPGS CLOUDY    55  24  30 SW6       29.81F                  
WALDEN         PTSUNNY   55  21  26 SW14G20   29.87F                  
$$

COZ006>008-011-162100-
...WEST CENTRAL VALLEYS...
  
CITY           SKY/WX    TMP DP  RH WIND       PRES   REMARKS
GRAND JUNCTION PTSUNNY   63  28  26 S15G22    29.81S                  
MONTROSE       PTSUNNY   58  24  27 SW13G31   29.87F                  
EAGLE          PTSUNNY   61  21  21 SW22G33   29.84F                  
RIFLE          FAIR      63  24  22 S15G25    29.80F HAZE             
DELTA          CLOUDY    62  29  28 SW7       29.86F                  
NUCLA          FAIR      59  23  25 SW16G24   29.91F                  
$$

COZ017>023-064>068-162100-
...SOUTHWEST COLORADO...
  
CITY           SKY/WX    TMP DP  RH WIND       PRES   REMARKS
DURANGO        PTSUNNY   53  26  35 S8G20     29.97F                  
CORTEZ         FAIR      58  28  32 SW13      29.92F                  
PAGOSA SPRINGS CLOUDY    52  27  37 W15G24    29.99S                  
TELLURIDE      CLOUDY    46  14  27 S17G29    29.99F                  
WOLF CREEK PAS CLOUDY    30  23  74 S31G41    30.10S WCI  15          
$$

COZ009-010-012-014-032>034-037-058>063-162100-
...CENTRAL COLORADO...
  
CITY           SKY/WX    TMP DP  RH WIND       PRES   REMARKS
ASPEN          CLOUDY    54  23  30 W13G20    29.88F                  
BUENA VISTA    CLOUDY    59  18  20 SE14G22   29.87F                  
COPPER MTN     CLOUDY    37  19  48 S8        30.04S                  
BERTHOUD PASS  PTSUNNY   32  23  69 W14G26    30.05F WCI  22          
COTTONWOOD PAS CLOUDY    48  18  29 S12G21    29.96F                  
GUNNISON       FAIR      54  25  32 SW13      29.90F                  
GRANBY         MOCLDY    54  22  29 W9G17     29.88F                  
KREMMLING      PTSUNNY   55  23  28 SW15G23   29.86S                  
LEADVILLE      PTSUNNY   43  21  41 SW7       29.94F                  
MONARCH PASS   CLOUDY    36  21  55 SW26G39   30.15F                  
SALIDA         CLOUDY    59  20  22 NW8       29.94F                  
SUNLIGHT       FAIR      39  21  48 SW14G29   30.02F                  
WILKERSON PASS CLOUDY    43  18  36 SW14G20   30.03F                  
$$

COZ069>075-162100-
...SAN LUIS VALLEY/SANGRE DE CRISTO MOUNTAINS...
  
CITY           SKY/WX    TMP DP  RH WIND       PRES   REMARKS
ALAMOSA        FAIR      62  15  16 SW23G32   29.90F                  
DEL NORTE      FAIR      57  23  27 W22G30    29.94F                  
LA VETA PASS   NOT AVBL                                               
SAGUACHE       CLOUDY    55  23  28 CALM      29.90F                  
$$

COZ035-036-038>040-162100-
...NORTHERN COLORADO FRONT RANGE...
  
CITY           SKY/WX    TMP DP  RH WIND       PRES   REMARKS
DENVER INTL AP PTSUNNY   59  43  55 E14       29.77F                  
AURORA         PTSUNNY   64  39  40 E10       29.76F                  
FRONT RANGE AP PTSUNNY   64  39  39 E12G18    29.78F                  
ERIE MUNI ARPT PTSUNNY   61  38  43 NE5       29.82F                  
BOULDER MUN AP PTSUNNY   61  39  44 CALM      29.77F                  
CENTENNIAL     PTSUNNY   65  41  41 VRB7      29.76F                  
BROOMFIELD     PTSUNNY   59  39  47 E6        29.80F                  
FORT COLLINS   FAIR      62  42  47 SE3       29.79F                  
LONGMONT       FAIR      66  40  38 E3        29.79F                  
$$

COZ041-046-047-076>085-087-088-162100-
...PIKES PEAK/PALMER DIVIDE AND SOUTHERN FOOTHILLS...
  
CITY           SKY/WX    TMP DP  RH WIND       PRES   REMARKS
COLO. SPRINGS  PTSUNNY   69  27  20 S20G29    29.80F                  
A. F. ACADEMY  FAIR      66  26  22 S14G22    29.78F                  
SCHRIEVER AFB  NOT AVBL                                               
CHEYENNE MTN   FAIR      64  23  20 SE18G28   29.76F                  
ELLICOTT         N/A    N/A N/A N/A SW15      29.80F                  
FALCON         FAIR      66  22  18 S15G26    29.84F                  
FORT CARSON    FAIR      72  25  17 SW20G29   29.77F                  
LIMON          FAIR      66  35  31 SE13      29.78F                  
MONUMENT HILL  FAIR      61  30  31 MISG      29.83F                  
CANON CITY     PTSUNNY   75  27  16 SW10G24   29.76F                  
WALSENBURG     NOT AVBL                                               
TRINIDAD       FAIR      73  25  16 VRB7      29.77F                  
$$

COZ042>045-048>051-090-091-162100-
...NORTHEAST COLORADO...
  
CITY           SKY/WX    TMP DP  RH WIND       PRES   REMARKS
GREELEY ARPT   FAIR      61  43  51 SE10      29.79F                  
AKRON          FAIR      59  46  62 SE17      29.80F                  
BURLINGTON     FAIR      72  46  39 SE14G24   29.77F                  
WRAY           FAIR      64  45  48 SE14G20   29.79F                  
YUMA           NOT AVBL                                               
STERLING       FAIR      61  45  55 SE14      29.79F                  
HOLYOKE        FAIR      66  43  42 SE15G22   29.80F                  
FORT MORGAN      N/A     59  41  51 SE9G17    29.80F                  
$$

COZ086-089-092>099-162100-
...SOUTHEAST COLORADO...
  
CITY           SKY/WX    TMP DP  RH WIND       PRES   REMARKS
PUEBLO         FAIR      77  33  20 E12G17    29.72F                  
LA JUNTA       FAIR      76  35  22 VRB3      29.73F                  
LAMAR          FAIR      76  37  24 VRB7      29.72F                  
SPRINGFIELD      N/A     76  36  23 E13G22    29.74F                  
$$